User: anonymous   Login
Location: Vancouver
(49.2500°N, 123.1330°W)
Time: 16:29:38
(UTC-07:00)
Language:

AO-27 - Orbit

View from above orbital plane
View from above orbital plane
View from above satellite
View from above satellite

Ground track
Ground track

The orbit data is extracted from the following two-line orbital elements,

1 22825U 93061C   15211.79892193  .00000019  00000-0  24681-4 0  9991
2 22825 098.7115 161.9274 0008393 173.2972 244.0447 14.29894375139174
Epoch (UTC): 30 July 2015 19:10:26
Eccentricity: 0.0008393
inclination: 98.7115°
perigee height: 786 km
apogee height: 798 km
right ascension of ascending node: 161.9274°
argument of perigee: 173.2972°
revolutions per day: 14.29894375
mean anomaly at epoch: 244.0447°
orbit number at epoch: 13917

The dashed part of the orbit path shows where the satellite is in the earth's shadow,  

DLR